Probability
0 0 0 0 0 0 0 0 0 0 0 0 0 0 0 0 0 0 0 0 0 0 0 0 0 0 0 0 0 0 0 0 0 0 0 0 0 0 0 0 0 0 0 0
0 0 0 0 0 0 0 0 0 0 0 0 0 0 0 0 0 0 0 0 0 0 0 0 0 0 0 0 0 0 0 0 0 0 0 0 0 0 0 0 0 0 0 0
0 0 0 0 0 0 0 0 0 0 0 0 0 0 0 0 0 0 0 0 0 0 0 0 0 0 0 0 0 0 0 0 0 0 0 0 0 0 0 0 0 0 0 0
0 0 0 0 0 0 0 0 0 0 0 0 0 0 0 0 0 0 0 0 0 0 0 0 0 0 0 0 0 0 0 0 0 0 0 0 0 0 0 0 0 0 0 0
0 0 0 0 0 0 0 0 0 0 0 0 0 0 0 0 0 0 0 0 0 0 0 0 0 0 0 0 0 0 0 0 0 0 0 0 0 0 0 0 0 0 0 0
0 0 0 0 0 0 0 0 0 0 0 0 0 0 0 0 0 0 0 0 0 0 0 0 0 0 0 0 0 0 0 0 0 0 0 0 0 0 0 0 0 0 0 0
0 0 0 0 0 0 0 0 0 0 0 0 0 0 0 0 0 0 0 0 0 0 0 0 0 0 0 0 0 0 0 0 0 0 0 0 0 0 0 0 0 0 0 0
0 0 0 0 0 0 0 0 0 0 0 0 0 0 0 0 0 0 0 0 0 0 0 0 0 0 0 0 0 0 0 0 0 0 0 0 0 0 0 0 0 0 0 0
0 0 0 0 0 0 0 0 0 0 0 0 0 0 0 0 0 0 0 0 0 0 0 0 0 0 0 0 0 0 0 0 0 0 0 0 0 0 0 0 0 0 0 0
0 0 0 0 0 0 0 0 0 0 0 0 0 0 0 0 0 0 0 0 0 0 0 0 0 0 0 0 0 0 0 0 0 0 0 0 0 0 0 0 0 0 0 0
0 0 0 0 0 0 0 0 0 0 0 0 0 0 0 0 0 0 0 0 0 0 0 0 0 0 0 0 0 0 0 0 0 0 0 0 0 0 0 0 0 0 0 0
0 0 0 0 0 0 0 0 0 0 0 0 0 0 0 0 0 0 0 0 0 0 0 0 0 0 0 0 0 0 0 0 0 0 0 0 0 0 0 0 0 0 0 0
0 0 0 0 0 0 0 0 0 0 0 0 0 0 0 0 0 0 0 0 0 0 0 0 0 0 0 0 0 0 0 0 0 0 0 0 0 0 0 0 0 0 0 0
0 0 0 0 0 0 0 0 0 0 0 0 0 0 0 0 0 0 0 0 0 0 0 0 0 0 0 0 0 0 0 0 0 0 0 0 0 0 0 0 0 0 0 0
0 0 0 0 0 0 0 0 0 0 0 0 0 0 0 0 0 0 0 0 0 0 0 0 0 0 0 0 0 0 0 0 0 0 0 0 0 0 0 0 0 0 0 0
0 0 0 0 0 0 0 0 0 0 0 0 0 0 0 0 0 0 0 0 0 0 0 0 0 0 0 0 0 0 0 0 0 0 0 0 0 0 0 0 0 0 0 0
0 0 0 0 0 0 0 0 0 0 0 0 0 0 0 0 0 0 0 0 0 0 0 0 0 0 0 0 0 0 0 0 0 0 0 0 0 0 0 0 0 0 0 0
0 0 0 0 0 0 0 0 0 0 0 0 0 0 0 0 0 0 0 0 0 0 0 0 0 0 0 0 0 0 0 0 0 0 0 0 0 0 0 0 0 0 0 0
0 0 0 0 0 0 0 0 0 0 0 0 0 0 0 0 0 0 0 0 0 0 0 0 0 0 0 0 0 0 0 0 0 0 0 0 0 0 0 0 0 0 0 0
0 0 0 0 0 0 0 0 0 0 0 0 0 0 0 0 0 0 0 0 0 0 0 0 0 0 0 0 0 0 0 0 0 0 0 0 0 0 0 0 0 0 0 0
0 0 0 0 0 0 0 0 0 0 0 0 0 0 0 0 0 0 0 0 0 0 0 0 0 0 0 0 0 0 0 0 0 0 0 0 0 0 0 0 0 0 0 0
0 0 0 0 0 0 0 0 0 0 0 0 0 0 0 0 0 0 0 0 0 0 0 0 0 0 0 0 0 0 0 0 0 0 0 0 0 0 0 0 0 0 0 0
0 0 0 0 0 0 0 0 0 0 0 0 0 0 0 0 0 0 0 0 0 0 0 0 0 0 0 0 0 0 0 0 0 0 0 0 0 0 0 0 0 0 0 0
0 0 0 0 0 0 0 0 0 0 0 0 0 0 0 0 0 0 0 0 0 0 0 0 0 0 0 0 0 0 0 0 0 0 0 0 0 0 0 0 0 0 0 0
0 0 0 0 0 0 0 0 0 0 0 0 0 0 0 0 0 0 0 0 0 0 0 0 0 0 0 0 0 0 0 0 0 0 0 0 0 0 0 0 0 0 0 0
0 0 0 0 0 0 0 0 0 0 0 0 0 0 0 0 0 0 0 0 0 0 0 0 0 0 0 0 0 0 0 0 0 0 0 0 0 0 0 0 0 0 0 0
0 0 0 0 0 0 0 0 0 0 0 0 0 0 0 0 0 0 0 0 0 0 0 0 0 0 0 0 0 0 0 0 0 0 0 0 0 0 0 0 0 0 0 0
Height
5635 5636 5638 5640 5643 5645 5647 5649 5652 5655 5656 5658 5659 5661 5663 5665 5666 5668 5669 5671 5672 5673 5674 5675 5676 5677 5678 5679 5680 5680 5681 5682 5682 5683 5683 5684 5684 5684 5685 5685 5685 5685 5685 5685
5632 5633 5635 5637 5639 5641 5643 5645 5647 5649 5651 5652 5653 5655 5656 5658 5659 5661 5662 5663 5664 5665 5666 5667 5668 5669 5669 5670 5670 5671 5671 5672 5672 5672 5673 5673 5673 5673 5674 5674 5673 5673 5673 5673
5628 5629 5631 5633 5635 5636 5638 5639 5641 5643 5646 5645 5647 5648 5650 5651 5652 5653 5654 5655 5656 5656 5657 5658 5659 5659 5660 5660 5661 5661 5661 5662 5662 5662 5662 5662 5662 5662 5662 5662 5662 5662 5662 5662
5623 5625 5627 5631 5630 5631 5632 5633 5634 5636 5637 5639 5640 5641 5642 5643 5644 5645 5645 5646 5647 5648 5648 5649 5649 5650 5650 5651 5651 5651 5651 5652 5652 5652 5652 5652 5652 5651 5651 5651 5651 5651 5651 5650
5618 5619 5621 5624 5624 5625 5626 5627 5628 5629 5630 5631 5632 5633 5634 5635 5635 5636 5637 5637 5638 5638 5639 5639 5640 5640 5640 5641 5641 5641 5641 5642 5642 5642 5642 5641 5641 5641 5641 5640 5640 5640 5640 5640
5613 5614 5615 5618 5619 5618 5620 5620 5622 5622 5623 5623 5624 5625 5626 5626 5627 5627 5628 5628 5629 5629 5629 5630 5630 5630 5631 5631 5631 5631 5631 5632 5632 5632 5631 5631 5631 5631 5630 5630 5630 5630 5629 5629
5608 5609 5610 5612 5612 5613 5614 5615 5615 5615 5615 5615 5616 5617 5618 5618 5618 5618 5619 5619 5619 5620 5620 5620 5620 5621 5621 5621 5622 5622 5622 5622 5622 5622 5622 5622 5621 5621 5621 5621 5620 5620 5620 5620
5603 5604 5607 5605 5606 5607 5607 5606 5606 5607 5607 5607 5608 5608 5609 5609 5609 5610 5610 5610 5610 5611 5611 5611 5611 5611 5611 5612 5612 5612 5612 5612 5612 5612 5612 5612 5612 5612 5612 5612 5611 5611 5611 5611
5598 5600 5599 5598 5599 5599 5599 5599 5599 5599 5599 5599 5600 5600 5600 5600 5601 5601 5601 5601 5602 5602 5602 5602 5602 5602 5603 5603 5603 5603 5603 5603 5603 5603 5603 5603 5603 5603 5603 5603 5603 5603 5603 5603
5592 5592 5592 5592 5592 5592 5592 5591 5591 5591 5591 5591 5591 5591 5592 5592 5592 5592 5592 5593 5593 5593 5593 5593 5593 5594 5594 5594 5594 5594 5594 5594 5594 5594 5594 5594 5595 5595 5595 5595 5595 5595 5595 5595
5586 5586 5585 5585 5585 5585 5584 5583 5583 5583 5583 5583 5583 5583 5583 5583 5583 5583 5583 5583 5584 5584 5584 5584 5584 5585 5585 5585 5585 5585 5585 5585 5585 5585 5586 5586 5586 5586 5586 5587 5586 5587 5587 5587
5582 5580 5579 5579 5578 5577 5576 5576 5575 5575 5574 5574 5573 5574 5573 5573 5573 5574 5574 5574 5574 5574 5575 5575 5575 5575 5575 5576 5576 5576 5576 5576 5577 5577 5577 5577 5577 5578 5578 5578 5578 5578 5578 5578
5575 5574 5572 5571 5570 5569 5569 5567 5566 5565 5565 5564 5564 5564 5564 5564 5564 5564 5564 5564 5564 5565 5565 5565 5565 5566 5566 5566 5567 5567 5567 5568 5568 5568 5568 5569 5569 5569 5569 5569 5569 5569 5569 5569
5570 5568 5566 5565 5563 5562 5560 5559 5557 5556 5555 5554 5554 5554 5553 5553 5553 5553 5554 5554 5554 5555 5555 5555 5556 5556 5556 5557 5557 5558 5558 5558 5559 5559 5559 5559 5560 5560 5560 5560 5560 5560 5560 5559
5566 5563 5560 5557 5555 5553 5551 5549 5547 5545 5543 5543 5543 5543 5542 5542 5542 5542 5542 5543 5543 5544 5544 5545 5545 5546 5546 5547 5547 5548 5548 5549 5549 5549 5550 5550 5550 5550 5550 5550 5550 5550 5550 5550
5560 5557 5554 5551 5547 5545 5542 5539 5537 5535 5533 5532 5532 5531 5531 5530 5530 5529 5530 5531 5531 5532 5533 5534 5535 5535 5536 5536 5537 5537 5538 5538 5539 5539 5540 5540 5540 5540 5540 5540 5540 5540 5540 5539
5554 5550 5547 5543 5540 5536 5533 5530 5527 5525 5523 5521 5520 5519 5519 5518 5518 5517 5518 5518 5519 5520 5521 5522 5523 5524 5524 5525 5526 5526 5527 5528 5528 5529 5529 5529 5529 5529 5529 5529 5529 5529 5529 5528
5546 5543 5539 5535 5531 5527 5524 5520 5517 5514 5512 5510 5509 5507 5506 5506 5505 5505 5506 5506 5507 5508 5509 5510 5511 5512 5513 5514 5514 5515 5516 5517 5517 5518 5518 5518 5518 5518 5518 5518 5517 5517 5517 5517
5538 5534 5530 5526 5522 5518 5514 5511 5507 5504 5500 5498 5496 5495 5493 5493 5493 5493 5493 5494 5494 5495 5496 5497 5499 5500 5501 5502 5503 5504 5505 5506 5506 5507 5507 5507 5507 5507 5507 5507 5506 5506 5506 5505
5528 5524 5520 5515 5511 5507 5503 5499 5495 5492 5488 5486 5483 5482 5480 5480 5480 5480 5480 5481 5481 5482 5483 5485 5486 5488 5489 5490 5491 5492 5493 5494 5495 5496 5496 5496 5496 5496 5496 5495 5495 5495 5495 5494
5518 5513 5509 5504 5500 5495 5491 5487 5483 5479 5476 5473 5470 5468 5467 5467 5466 5466 5467 5467 5468 5469 5470 5472 5473 5475 5477 5478 5480 5481 5482 5483 5484 5484 5485 5485 5485 5485 5485 5484 5484 5484 5484 5483
5506 5501 5496 5492 5487 5482 5478 5473 5469 5465 5462 5459 5456 5454 5453 5453 5452 5453 5453 5454 5454 5455 5457 5458 5460 5462 5464 5466 5468 5469 5470 5471 5472 5473 5473 5474 5474 5474 5474 5474 5473 5473 5473 5472
5494 5488 5483 5478 5473 5469 5464 5459 5455 5451 5448 5445 5442 5440 5439 5438 5438 5438 5439 5440 5441 5443 5445 5446 5448 5450 5452 5454 5456 5457 5459 5460 5461 5462 5462 5463 5463 5463 5463 5463 5462 5462 5462 5462
5481 5475 5469 5464 5459 5454 5449 5445 5441 5437 5433 5430 5428 5426 5424 5424 5424 5424 5425 5426 5428 5430 5432 5434 5436 5438 5440 5442 5444 5445 5447 5448 5449 5451 5451 5452 5452 5452 5452 5452 5452 5452 5452 5451
5467 5461 5455 5449 5444 5439 5435 5430 5426 5423 5420 5417 5415 5413 5411 5410 5410 5411 5411 5413 5415 5417 5420 5422 5425 5427 5429 5431 5433 5434 5436 5437 5438 5439 5440 5441 5442 5442 5442 5442 5442 5442 5442 5441
5453 5446 5440 5435 5429 5424 5420 5416 5413 5409 5407 5404 5402 5400 5399 5398 5398 5398 5399 5401 5403 5405 5407 5410 5413 5415 5417 5420 5422 5423 5425 5426 5428 5429 5430 5431 5431 5432 5432 5432 5432 5432 5432 5431
5438 5432 5426 5421 5415 5410 5406 5402 5399 5396 5393 5391 5390 5388 5387 5386 5386 5387 5388 5389 5391 5393 5396 5398 5401 5404 5406 5408 5411 5413 5415 5416 5418 5419 5420 5421 5421 5422 5422 5422 5423 5422 5422 5422
Wind_Speed
14 14 15 17 18 20 22 22 22 21 22 23 24 25 25 25 24 25 26 26 27 27 28 29 29 31 32 33 34 36 37 38 39 40 42 43 44 45 46 46 47 47 48 48
17 17 17 18 19 20 21 23 23 24 23 24 25 25 25 25 25 26 27 28 28 29 29 30 31 32 32 33 34 35 36 37 38 39 40 42 43 44 44 44 45 45 45 45
19 20 21 21 20 21 22 23 24 24 24 25 25 25 26 26 27 27 28 29 30 30 30 31 32 32 33 33 34 35 36 37 38 38 39 40 41 42 42 42 42 43 42 42
21 21 22 21 22 23 23 24 25 26 26 26 27 27 28 28 29 29 30 30 31 31 31 32 32 32 33 34 34 35 35 36 37 37 38 39 40 40 40 41 41 41 41 40
22 22 23 22 21 22 24 25 26 27 27 28 28 28 29 29 29 29 30 31 31 32 32 32 33 33 34 34 35 35 35 36 36 37 37 38 38 38 38 38 38 39 39 39
21 22 23 23 22 23 25 26 26 26 27 27 28 29 29 29 30 30 30 31 31 32 32 33 33 33 34 34 35 35 35 35 35 35 35 36 36 36 36 36 36 35 35 35
22 23 24 23 22 23 25 26 25 26 27 27 28 28 29 29 30 30 30 30 31 31 32 32 32 32 32 33 33 33 33 34 34 34 34 33 33 33 32 32 32 32 32 32
24 24 25 25 24 25 25 26 26 27 27 28 28 28 28 29 29 29 30 30 30 30 30 30 31 31 32 32 31 31 32 32 32 32 32 32 31 31 30 30 30 29 29 29
22 24 25 26 26 26 27 27 28 28 28 28 28 29 29 29 29 30 30 30 29 29 29 29 29 30 30 31 31 31 31 31 31 31 31 31 30 29 29 28 28 28 28 28
21 22 24 26 26 27 28 28 29 29 29 29 29 29 29 29 30 30 30 30 30 30 30 30 30 30 30 30 31 31 31 31 31 31 30 30 29 28 28 28 27 27 27 27
21 22 23 24 25 26 27 28 28 29 29 29 29 30 30 30 31 31 30 31 31 31 31 31 30 30 30 30 30 30 30 30 29 29 29 29 29 29 29 28 27 27 27 27
22 23 24 25 25 25 27 28 29 29 30 30 31 30 31 31 31 31 31 31 32 32 31 31 31 31 31 31 30 30 30 29 29 28 28 28 28 28 28 28 28 28 28 28
21 22 24 26 27 27 27 29 29 30 30 31 32 32 32 33 33 33 32 32 32 32 32 32 32 32 31 31 30 29 28 28 28 29 29 29 29 29 29 29 29 29 29 29
21 22 23 26 27 28 30 31 32 32 32 32 33 33 34 34 34 34 34 34 33 33 32 32 32 32 32 31 31 30 30 30 29 29 29 29 29 29 29 30 30 30 30 31
22 23 24 26 27 29 30 31 32 33 34 34 35 35 35 35 36 36 36 36 35 35 34 33 33 33 33 32 32 32 31 31 31 31 30 30 31 31 31 31 31 31 31 32
24 25 26 26 27 29 30 31 32 33 34 35 35 36 37 37 37 37 37 37 37 37 36 35 35 35 34 34 33 33 33 33 33 32 32 32 33 33 33 33 33 34 34 34
27 28 29 29 30 30 31 31 32 32 33 35 36 36 37 38 38 37 37 38 37 37 37 36 36 36 35 35 34 34 34 33 33 33 33 33 33 34 34 34 34 34 35 35
30 31 31 31 32 32 33 33 33 33 33 34 35 36 37 37 37 37 37 37 37 38 37 37 36 36 36 35 35 34 34 33 33 33 33 32 33 33 33 33 34 34 35 36
33 34 34 35 35 35 35 35 35 36 36 36 36 36 37 37 37 37 37 37 37 37 37 37 37 36 36 35 35 34 34 34 34 33 33 33 33 33 33 33 33 34 34 34
37 37 37 38 39 39 38 38 39 39 38 38 37 37 37 36 36 37 37 37 37 38 38 37 36 35 35 34 34 34 33 33 33 33 33 33 33 33 33 33 33 33 33 33
40 40 40 41 42 42 42 42 42 41 40 40 39 38 37 37 36 36 36 36 36 36 36 37 36 36 35 35 34 34 33 33 33 33 33 33 33 33 33 33 32 33 33 33
43 44 44 44 44 43 43 43 43 42 41 41 40 39 38 37 37 36 36 35 35 35 35 35 35 35 35 35 34 34 33 33 33 32 32 33 33 32 32 32 32 32 32 32
47 47 47 47 46 45 45 44 44 42 41 41 40 39 38 38 37 37 36 36 35 34 34 34 34 34 35 34 34 34 33 33 33 32 32 32 32 32 32 32 31 31 31 31
50 50 49 49 48 47 46 45 44 42 41 40 39 38 37 36 36 36 36 36 35 34 34 33 33 33 32 33 32 32 32 32 32 32 31 31 30 30 30 30 30 30 30 30
53 52 50 50 49 48 46 45 43 41 39 37 37 36 35 34 33 33 33 34 34 34 34 34 34 33 32 31 31 31 31 31 30 30 30 30 29 29 29 29 29 29 29 30
53 52 51 50 49 47 45 44 42 40 38 37 36 35 34 34 33 32 31 31 31 32 33 33 33 32 32 31 31 30 30 29 28 28 28 28 28 28 28 28 28 29 29 29
53 52 50 49 47 46 44 43 41 40 38 36 35 34 33 33 32 31 31 30 31 31 31 31 31 31 31 31 30 30 29 28 27 27 27 27 27 27 27 27 27 27 27 27
Wind_Direction
241 241 239 235 235 237 240 242 244 244 245 248 250 251 252 254 255 255 255 256 257 259 260 260 260 261 261 261 262 263 263 263 263 264 265 266 267 268 270 271 272 272 273 274
246 247 247 245 244 245 246 248 249 248 247 249 252 255 255 256 257 258 258 259 260 262 262 262 262 263 264 264 263 263 263 264 264 265 266 267 268 268 269 270 271 272 272 273
248 250 252 252 251 251 250 250 251 251 251 252 255 257 258 259 259 260 260 261 262 263 263 264 265 265 265 264 264 265 265 265 266 267 268 269 269 269 270 270 271 272 272 273
253 253 255 255 254 254 253 252 254 255 255 256 258 258 259 260 261 262 262 262 262 263 264 265 265 265 265 265 265 265 266 267 267 268 269 270 270 271 271 272 272 272 272 273
256 257 258 256 257 257 257 256 256 258 259 260 260 260 260 262 263 264 264 264 263 264 265 266 266 266 265 265 265 266 266 267 268 269 270 271 272 272 272 272 272 273 272 272
258 260 261 259 259 260 260 259 258 260 261 261 261 261 262 262 263 264 265 265 265 265 265 266 266 266 266 266 266 266 267 268 268 269 270 271 272 272 272 273 273 273 273 272
259 261 263 263 262 262 263 264 263 262 262 262 262 262 263 263 263 264 265 265 266 266 266 265 265 265 265 265 266 266 267 267 267 268 270 271 272 272 272 273 273 272 272 273
260 262 264 265 265 265 267 266 266 265 264 263 263 263 263 263 263 264 265 265 266 267 266 266 265 265 265 265 265 266 267 267 268 269 269 271 271 271 271 273 273 272 272 273
267 267 266 266 265 265 266 267 268 267 266 265 264 264 264 264 264 264 264 265 265 266 266 266 266 265 265 264 265 266 267 268 269 269 269 270 270 270 271 272 273 272 272 273
275 273 272 269 268 268 268 268 268 267 266 265 264 264 263 264 264 264 264 264 264 265 265 266 265 265 265 266 266 266 267 268 269 269 269 269 269 270 272 271 272 271 272 273
280 279 277 275 273 271 270 270 269 268 266 265 264 263 263 263 264 264 264 264 265 265 265 265 265 265 265 266 266 267 269 269 268 269 269 269 269 270 270 270 271 272 272 273
288 282 278 277 276 275 273 272 271 269 268 266 265 264 264 264 264 264 264 264 264 264 264 265 265 265 265 266 266 267 268 268 267 267 268 268 269 270 269 270 271 272 272 273
300 291 285 281 279 279 277 276 275 273 270 269 267 266 266 265 263 263 264 264 263 263 264 264 264 265 265 264 265 266 267 267 267 267 268 269 269 270 270 271 271 272 271 272
310 301 293 288 285 282 280 279 277 276 274 271 270 269 268 267 265 264 263 263 262 262 263 263 263 263 263 264 263 263 265 266 266 267 268 268 269 270 270 271 271 271 271 273
317 310 304 298 292 289 286 283 281 278 275 273 272 271 270 269 267 266 264 263 262 262 262 263 263 263 263 263 263 264 265 266 266 266 267 269 270 270 270 271 271 272 272 272
318 314 310 305 300 296 292 289 286 282 278 275 273 272 271 271 270 267 264 262 262 262 262 263 263 264 263 264 263 263 264 265 266 267 268 269 270 271 271 271 271 272 272 272
314 312 309 305 303 301 298 295 291 287 283 278 275 274 273 272 270 268 265 262 261 261 261 261 262 263 263 262 262 263 263 264 266 267 269 270 271 272 272 272 271 271 271 272
312 309 308 305 303 300 298 296 295 291 287 283 279 276 274 272 270 268 265 263 262 261 261 261 261 261 261 261 262 262 263 263 265 267 269 271 272 272 273 273 272 272 271 272
309 306 305 305 304 302 300 297 295 293 290 286 283 280 276 272 270 268 266 264 263 262 262 261 260 260 260 260 261 262 263 263 264 266 268 269 271 273 273 273 273 273 273 273
308 305 304 303 303 302 300 298 296 294 292 288 285 282 279 276 273 270 266 264 263 262 261 260 259 259 259 260 261 262 262 263 264 266 267 269 270 271 272 272 273 274 274 274
308 306 304 303 303 302 300 298 296 294 292 290 286 283 280 277 274 271 268 266 263 262 260 259 258 258 259 260 261 262 263 264 264 265 267 269 270 271 272 272 273 273 274 275
308 307 305 304 303 302 300 298 297 295 292 289 287 283 279 276 274 272 269 266 263 261 260 258 257 258 258 259 260 262 263 263 264 266 268 268 270 271 272 272 272 273 274 275
308 307 305 304 303 302 301 299 298 296 293 290 287 283 280 275 272 269 266 264 262 261 259 258 258 258 258 258 259 260 261 263 264 266 268 269 270 271 271 271 271 272 273 274
307 306 305 304 303 302 301 300 298 296 294 291 288 285 282 278 273 269 265 261 260 259 257 256 256 257 257 258 258 258 260 261 263 264 266 267 269 270 271 270 270 272 273 275
308 307 305 304 303 302 301 300 298 297 294 292 289 286 282 278 274 269 264 261 258 256 255 255 255 255 255 256 256 257 259 260 261 262 263 265 267 269 270 270 271 272 274 276
309 307 306 305 304 302 301 300 298 297 294 291 289 285 281 278 274 270 265 261 258 256 254 254 254 254 253 254 254 255 257 259 260 261 263 264 266 268 269 270 272 273 274 276
309 308 307 306 304 302 301 299 297 296 293 290 288 285 281 277 273 269 265 261 258 256 254 253 252 252 251 252 252 253 255 257 258 260 263 264 265 266 268 270 272 273 275 276